When you browse on this site, cookies collect data to enhance your experience and personalize the content and advertising you see.
Visit our Privacy Policy to learn more. By continuing to use the site, you agree to this use of cookies and data.
  • In Latvia
  • List of Countries
  • For 7 days
  • Water Temperature
  • Weather Map
  • Weather Widgets
  • user-avatar
    Login

    Hourly Weather Phin

    Today, 18 September, Wednesday

    Time Temperature Precipitation Wind Pressure Humidity
    00:00 +25°C° 0 mm 1 mps 733 mmHg 93%
    01:00 +24°C° 0 mm 1 mps 733 mmHg 95%
    02:00 +24°C° 0 mm 1 mps 733 mmHg 95%
    03:00 +24°C° 0 mm 1 mps 733 mmHg 95%
    04:00 +24°C° 0 mm 1 mps 733 mmHg 95%
    05:00 +23°C° 0.3 mm 0 mps 733 mmHg 94%
    06:00 +23°C° 0.3 mm 0 mps 734 mmHg 93%
    07:00 +26°C° 0 mm 1 mps 734 mmHg 92%
    08:00 +28°C° 0.1 mm 1 mps 734 mmHg 83%
    09:00 +30°C° 0.1 mm 1 mps 735 mmHg 73%
    10:00 +32°C° 0.1 mm 2 mps 735 mmHg 63%
    11:00 +34°C° 0.2 mm 2 mps 734 mmHg 61%
    12:00 +34°C° 0.2 mm 2 mps 734 mmHg 58%
    13:00 +35°C° 0.2 mm 2 mps 733 mmHg 56%
    14:00 +34°C° 0.1 mm 3 mps 733 mmHg 59%
    15:00 +33°C° 0.1 mm 3 mps 732 mmHg 62%
    16:00 +31°C° 0.1 mm 3 mps 732 mmHg 65%
    17:00 +30°C° 0 mm 3 mps 733 mmHg 70%
    18:00 +29°C° 0 mm 2 mps 733 mmHg 75%
    19:00 +27°C° 0 mm 2 mps 733 mmHg 80%
    20:00 +27°C° 0 mm 2 mps 734 mmHg 81%
    21:00 +27°C° 0 mm 2 mps 734 mmHg 82%
    22:00 +27°C° 0 mm 1 mps 735 mmHg 83%
    23:00 +27°C° 0 mm 1 mps 734 mmHg 83%

    Tomorrow, 19 September, Thursday

    Time Temperature Precipitation Wind Pressure Humidity
    00:00 +26°C° 0 mm 1 mps 734 mmHg 84%
    01:00 +26°C° 0 mm 1 mps 734 mmHg 85%
    02:00 +26°C° 0 mm 1 mps 734 mmHg 85%
    03:00 +26°C° 0 mm 1 mps 734 mmHg 86%
    04:00 +26°C° 0 mm 1 mps 734 mmHg 87%
    05:00 +26°C° 0.6 mm 1 mps 734 mmHg 89%
    06:00 +26°C° 0.6 mm 1 mps 734 mmHg 91%
    07:00 +24°C° 0.6 mm 0 mps 735 mmHg 93%
    08:00 +27°C° 0.8 mm 1 mps 735 mmHg 88%
    09:00 +29°C° 0.8 mm 1 mps 735 mmHg 84%
    10:00 +30°C° 0.8 mm 1 mps 735 mmHg 79%
    11:00 +31°C° 1.4 mm 1 mps 735 mmHg 79%
    12:00 +31°C° 1.4 mm 1 mps 734 mmHg 79%
    13:00 +31°C° 1.4 mm 1 mps 733 mmHg 79%
    14:00 +31°C° 0.8 mm 1 mps 733 mmHg 78%
    15:00 +31°C° 0.8 mm 1 mps 733 mmHg 77%
    16:00 +31°C° 0.8 mm 1 mps 732 mmHg 76%
    17:00 +29°C° 0.4 mm 1 mps 732 mmHg 81%
    18:00 +28°C° 0.4 mm 2 mps 733 mmHg 86%
    19:00 +26°C° 0.4 mm 2 mps 733 mmHg 91%
    20:00 +26°C° 0.1 mm 1 mps 734 mmHg 92%
    21:00 +25°C° 0.1 mm 1 mps 734 mmHg 93%
    22:00 +25°C° 0.1 mm 1 mps 735 mmHg 94%
    23:00 +25°C° 0.6 mm 1 mps 735 mmHg 94%

    Day after tomorrow, 20 September, Friday

    Time Temperature Precipitation Wind Pressure Humidity
    00:00 +23°C° 0.6 mm 0 mps 734 mmHg 95%
    01:00 +23°C° 0.6 mm 0 mps 734 mmHg 96%
    02:00 +23°C° 0.6 mm 0 mps 734 mmHg 96%
    03:00 +23°C° 0.6 mm 0 mps 734 mmHg 96%
    04:00 +23°C° 0.6 mm 0 mps 734 mmHg 96%
    05:00 +23°C° 0.2 mm 0 mps 734 mmHg 95%
    06:00 +23°C° 0.2 mm 0 mps 734 mmHg 95%
    07:00 +23°C° 0.2 mm 0 mps 735 mmHg 94%
    08:00 +25°C° 0.7 mm 0 mps 735 mmHg 88%
    09:00 +27°C° 0.7 mm 0 mps 735 mmHg 81%
    10:00 +29°C° 0.7 mm 0 mps 735 mmHg 75%
    11:00 +31°C° 0.3 mm 1 mps 734 mmHg 71%
    12:00 +32°C° 0.3 mm 1 mps 734 mmHg 68%
    13:00 +32°C° 0.3 mm 2 mps 733 mmHg 64%
    14:00 +32°C° 0.1 mm 2 mps 732 mmHg 63%
    15:00 +32°C° 0.1 mm 2 mps 732 mmHg 62%
    16:00 +32°C° 0.1 mm 2 mps 731 mmHg 61%
    17:00 +30°C° 0 mm 2 mps 732 mmHg 68%
    18:00 +29°C° 0 mm 2 mps 732 mmHg 75%
    19:00 +27°C° 0 mm 2 mps 732 mmHg 81%
    20:00 +26°C° 0 mm 2 mps 733 mmHg 84%
    21:00 +26°C° 0 mm 2 mps 734 mmHg 87%
    22:00 +25°C° 0 mm 2 mps 734 mmHg 89%
    23:00 +25°C° 0.2 mm 1 mps 734 mmHg 91%

    21 September, Saturday

    Time Temperature Precipitation Wind Pressure Humidity
    00:00 +25°C° 0.2 mm 1 mps 734 mmHg 92%
    01:00 +24°C° 0.2 mm 1 mps 734 mmHg 93%
    02:00 +24°C° 0 mm 1 mps 733 mmHg 94%
    03:00 +24°C° 0 mm 1 mps 733 mmHg 95%
    04:00 +24°C° 0 mm 1 mps 733 mmHg 96%
    05:00 +24°C° 0 mm 1 mps 733 mmHg 93%
    06:00 +25°C° 0 mm 1 mps 734 mmHg 91%
    07:00 +25°C° 0 mm 1 mps 734 mmHg 88%
    08:00 +27°C° 0.3 mm 1 mps 734 mmHg 82%
    09:00 +29°C° 0.3 mm 1 mps 735 mmHg 75%
    10:00 +31°C° 0.3 mm 1 mps 735 mmHg 68%
    11:00 +31°C° 1.3 mm 1 mps 734 mmHg 72%
    12:00 +31°C° 1.3 mm 2 mps 734 mmHg 75%
    13:00 +30°C° 1.3 mm 2 mps 733 mmHg 78%
    14:00 +30°C° 0.2 mm 2 mps 733 mmHg 76%
    15:00 +30°C° 0.2 mm 2 mps 733 mmHg 73%
    16:00 +30°C° 0.2 mm 2 mps 732 mmHg 71%
    17:00 +28°C° 0 mm 2 mps 733 mmHg 76%
    18:00 +27°C° 0 mm 2 mps 733 mmHg 81%
    19:00 +25°C° 0 mm 1 mps 734 mmHg 86%
    20:00 +25°C° 0 mm 1 mps 735 mmHg 88%
    21:00 +24°C° 0 mm 1 mps 735 mmHg 89%
    22:00 +24°C° 0 mm 1 mps 736 mmHg 91%
    23:00 +24°C° 0 mm 1 mps 735 mmHg 91%

    22 September, Sunday

    Time Temperature Precipitation Wind Pressure Humidity
    00:00 +24°C° 0 mm 1 mps 735 mmHg 91%
    01:00 +24°C° 0 mm 1 mps 735 mmHg 91%
    02:00 +24°C° 0 mm 1 mps 735 mmHg 92%
    03:00 +23°C° 0 mm 1 mps 735 mmHg 92%
    04:00 +23°C° 0 mm 1 mps 735 mmHg 93%
    05:00 +24°C° 0 mm 1 mps 735 mmHg 91%
    06:00 +24°C° 0 mm 1 mps 736 mmHg 88%
    07:00 +25°C° 0 mm 1 mps 736 mmHg 85%
    08:00 +27°C° 0 mm 1 mps 736 mmHg 75%
    09:00 +29°C° 0 mm 2 mps 737 mmHg 64%
    10:00 +31°C° 0 mm 2 mps 737 mmHg 54%
    11:00 +33°C° 0 mm 3 mps 736 mmHg 52%
    12:00 +34°C° 0 mm 3 mps 736 mmHg 50%
    13:00 +34°C° 0 mm 3 mps 735 mmHg 49%
    14:00 +33°C° 0.1 mm 3 mps 735 mmHg 53%
    15:00 +31°C° 0.1 mm 3 mps 735 mmHg 58%
    16:00 +31°C° 0.1 mm 3 mps 735 mmHg 63%
    17:00 +29°C° 0 mm 3 mps 735 mmHg 68%
    18:00 +27°C° 0 mm 3 mps 736 mmHg 74%
    19:00 +25°C° 0 mm 3 mps 736 mmHg 79%
    20:00 +25°C° 0 mm 2 mps 737 mmHg 81%
    21:00 +24°C° 0 mm 2 mps 737 mmHg 83%
    22:00 +24°C° 0 mm 2 mps 738 mmHg 85%
    23:00 +23°C° 0 mm 2 mps 737 mmHg 86%

    23 September, Monday

    Time Temperature Precipitation Wind Pressure Humidity
    00:00 +23°C° 0 mm 1 mps 737 mmHg 87%
    01:00 +23°C° 0 mm 1 mps 737 mmHg 88%
    02:00 +23°C° 0 mm 1 mps 737 mmHg 87%
    03:00 +23°C° 0 mm 1 mps 737 mmHg 87%
    04:00 +23°C° 0 mm 1 mps 737 mmHg 87%
    05:00 +23°C° 0 mm 2 mps 737 mmHg 85%
    06:00 +24°C° 0 mm 2 mps 737 mmHg 83%
    07:00 +25°C° 0 mm 2 mps 738 mmHg 81%
    08:00 +27°C° 0 mm 2 mps 738 mmHg 72%
    09:00 +29°C° 0 mm 2 mps 738 mmHg 64%
    10:00 +31°C° 0 mm 3 mps 738 mmHg 56%
    11:00 +31°C° 0.1 mm 3 mps 738 mmHg 55%
    12:00 +33°C° 0.1 mm 3 mps 737 mmHg 54%
    13:00 +33°C° 0.1 mm 3 mps 737 mmHg 52%
    14:00 +33°C° 0 mm 4 mps 736 mmHg 54%
    15:00 +32°C° 0 mm 4 mps 736 mmHg 56%
    16:00 +30°C° 0 mm 4 mps 735 mmHg 58%
    17:00 +28°C° 0 mm 3 mps 736 mmHg 65%
    18:00 +27°C° 0 mm 3 mps 736 mmHg 72%
    19:00 +25°C° 0 mm 3 mps 736 mmHg 79%
    20:00 +25°C° 0 mm 2 mps 737 mmHg 81%
    21:00 +24°C° 0 mm 2 mps 737 mmHg 83%
    22:00 +24°C° 0 mm 2 mps 738 mmHg 84%
    23:00 +24°C° 0 mm 2 mps 738 mmHg 86%
    Show more